This demonstration page uses our WeatherBlox Daily Observations layout. Learn more.

Left ArrowRight Arrow

41.86663, -103.66717

Hourly Observations for August 29, 2020

Temp ( °F °C ) Dew Point ( °F °C ) Humidity (%) Winds ( mph kmh ) Pressure ( in mb ) Visibility ( mi km ) Precip ( " mm )
12:53 am 00:53 Clear 58 14.4 49 9.4 72 72 E 6 9 30.02 1017 10 16 N/A
1:53 am 01:53 Clear 56 13.3 49 9.4 77 77 E 6 9 30.00 1016 10 16 N/A
2:53 am 02:53 Clear 56 13.3 49 9.4 77 77 E 7 11 29.98 1015 10 16 N/A
3:53 am 03:53 Clear 54 12.2 49 9.4 83 83 ESE 6 9 29.98 1015 10 16 N/A
4:53 am 04:53 Clear 53 11.7 49 9.4 86 86 ESE 6 9 29.99 1016 10 16 N/A
5:53 am 05:53 Clear 55 12.8 50 10 83 83 undefined N/A 30.00 1016 10 16 N/A
6:53 am 06:53 Sunny 56 13.3 52 11.1 87 87 undefined N/A 30.01 1016 10 16 N/A
7:53 am 07:53 Sunny 60 15.6 53 11.7 78 78 ESE 9 15 30.01 1016 10 16 N/A
8:53 am 08:53 Sunny 65 18.3 54 12.2 68 68 SE 6 9 30.00 1016 10 16 N/A
9:53 am 09:53 Sunny 73 22.8 53 11.7 50 50 S 15 24 29.95 1014 10 16 N/A
10:53 am 10:53 Sunny 76 24.4 55 12.8 48 48 SSE 15 24 29.93 1014 10 16 N/A
11:53 am 11:53 Mostly Sunny 82 27.8 56 13.3 41 41 SSW 13 20 29.92 1013 10 16 N/A
12:53 pm 12:53 Mostly Sunny 81 27.2 57 13.9 44 44 S 12 19 29.90 1012 10 16 N/A
1:53 pm 13:53 Partly Cloudy 77 25 60 15.6 56 56 SSE 15 24 29.87 1012 10 16 0.01 0.25
2:53 pm 14:53 Sunny 83 28.3 58 14.4 43 43 S 17 28 29.82 1010 10 16 N/A
3:53 pm 15:53 Sunny 80 26.7 59 15 49 49 S 10 17 29.80 1009 10 16 N/A
4:53 pm 16:53 Sunny 81 27.2 59 15 47 47 SSE 13 20 29.76 1008 10 16 N/A
5:53 pm 17:53 Sunny 82 27.8 58 14.4 44 44 SSE 8 13 29.73 1007 10 16 N/A
6:53 pm 18:53 Sunny 80 26.7 57 13.9 45 45 S 7 11 29.73 1007 10 16 N/A
7:53 pm 19:53 Mostly Clear 77 25 57 13.9 50 50 SSE 20 31 29.75 1007 10 16 N/A
8:53 pm 20:53 Clear 73 22.8 58 14.4 59 59 SSE 12 19 29.74 1007 10 16 N/A
9:53 pm 21:53 Clear 73 22.8 53 11.7 50 50 S 12 19 29.71 1006 10 16 N/A
10:53 pm 22:53 Clear 70 21.1 50 10 49 49 S 7 11 29.70 1006 10 16 N/A
11:53 pm 23:53 Clear 70 21.1 50 10 49 49 SE 7 11 29.66 1004 10 16 N/A

Powered by AerisWeather